User: anonymous
Location: Unspecified
(0.0000°N, 0.0000°E)
Time: 21:18:00
(UTC+02:00)
Language:

Iridium 75 - Orbit

View from above orbital plane
View from above orbital plane
View from above satellite
View from above satellite

Ground track
Ground track

The orbit data is extracted from the following two-line orbital elements,

1 25346U 98032E   14114.23342000  .00000449  00000-0  15318-3 0  7892
2 25346 086.3973 344.7676 0002117 103.8219 035.2325 14.34216188834845
Epoch (UTC): 24 April 2014 05:36:07
Eccentricity: 0.0002117
inclination: 86.3973°
perigee height: 776 km
apogee height: 779 km
right ascension of ascending node: 344.7676°
argument of perigee: 103.8219°
revolutions per day: 14.34216188
mean anomaly at epoch: 35.2325°
orbit number at epoch: 83484

The dashed part of the orbit path shows where the satellite is in the earth's shadow,  

DLR